ONEWEB-0083 (45435 NORAD) Tracking and Keplerian Element Data

This shows tracking and keplerian element data for the satellite.

Feedback or suggestion? Click here.




ElementValue
Catalog45435
NameONEWEB-0083
Epoch Orbit3219
Epoch Day297.91667824
Epoch Year2020
RAAN71.563
Inclination87.7853
Eccentricity0.0020241
Argument of Perigee247.223
Mean Anonmoly270.855
Mean Motion13.97185395
Decay Rate-0.00022431
L11 45435U 20020M 20297.91667824 -.00022431 00000-0 -16083-1 0 9991
L22 45435 87.7853 71.5630 0020241 247.2230 270.8550 13.97185395 32195

Live tracking and technical data element details for ONEWEB-0083 (NORAD 45435). ONEWEB-0083 can be tracked NOW for your location showing map with azimuth and elevation plus other details from your city location.

Track the satellite on the map from your city or location and see movement details for azimuth, elevation, latitude, longitude, range, height, and movement on the map or in text.







IsCatalogInMostPopularTable: catalog: 45435, numindb: 50
Update: records affected: 1



GetName: 45435 ONEWEB-0083

Hit Count: updated at: Sun, 25 Oct 2020 00:04:47 GMT